FW3054 Weather Reports


Display with metric or nautical units.
time (UTC)temp
F
wind
direction
speed
MPH
gust
MPH
rain 1hr
in
rain 24hr
in
rain mn
in
humidity
%
barometer
mb
20260905083516 71 0.0 0.0 0.00 0.00 0.00 88 1017.6
20260905082515 71 0.0 0.0 0.00 0.00 0.00 88 1017.7
20260905081515 71 0.0 0.0 0.00 0.00 0.00 88 1017.7
20260905080516 71 0.0 0.0 0.00 0.00 0.00 88 1017.9
20260905075557 71 0.0 0.0 0.00 0.00 0.00 88 1018.0
20260905074515 71 0.0 0.0 0.00 0.00 0.00 88 1018.0
20260905073515 71 0.0 1.0 0.00 0.00 0.00 88 1018.1
20260905072517 71 0.0 1.0 0.00 0.00 0.00 88 1018.1
20260905071537 71 0.0 0.0 0.00 0.00 0.00 88 1018.3
20260905070517 71 0.0 0.0 0.00 0.00 0.00 89 1018.4
20260905065517 71 0.0 0.0 0.00 0.00 0.00 89 1018.3
20260905064517 71 0.0 0.0 0.00 0.00 0.00 89 1018.4
20260905063517 71 0.0 1.0 0.00 0.00 0.00 89 1018.5
20260905062537 72 0.0 0.0 0.00 0.00 0.00 89 1018.6
20260905061517 72 0.0 0.0 0.00 0.00 0.00 89 1018.6
20260905060537 72 0.0 0.0 0.00 0.00 0.00 89 1018.8
20260905055517 72 0.0 0.0 0.00 0.00 0.00 89 1018.9
20260905054517 72 0.0 0.0 0.00 0.00 0.00 89 1018.9
20260905053517 72 0.0 0.0 0.00 0.00 0.00 89 1018.8
20260905052517 72 0.0 0.0 0.00 0.00 0.00 89 1018.9
20260905051557 72 0.0 0.0 0.00 0.00 0.00 89 1018.9
20260905050517 73 0.0 0.0 0.00 0.00 0.00 89 1018.7
20260905045517 73 0.0 0.0 0.00 0.00 0.00 89 1018.7
20260905044517 73 0.0 0.0 0.00 0.00 0.00 89 1018.8
20260905043517 73 0.0 0.0 0.00 0.00 0.00 89 1018.7
20260905042517 73 0.0 0.0 0.00 0.00 0.00 89 1018.3
20260905041517 74 0.0 0.0 0.00 0.00 0.00 88 1018.2
20260905040517 74 0.0 0.0 0.00 0.00 0.00 88 1018.3
20260905035517 74 0.0 0.0 0.00 0.00 0.00 88 1018.1
20260905034517 75 0.0 0.0 0.00 0.00 0.00 87 1018.1
20260905033517 75 0.0 0.0 0.00 0.00 0.00 87 1018.6
20260905032517 75 0.0 0.0 0.00 0.00 0.00 86 1018.1
20260905031537 75 0.0 0.0 0.00 0.00 0.00 86 1018.2
20260905030517 76 0.0 0.0 0.00 0.00 0.00 86 1018.3
20260905025537 76 0.0 0.0 0.00 0.00 0.00 86 1018.2
20260905024517 76 0.0 0.0 0.00 0.00 0.00 86 1018.2
20260905023517 77 0.0 0.0 0.00 0.00 0.00 85 1018.4
20260905022517 77 0.0 0.0 0.00 0.00 0.00 84 1018.4
20260905021517 77 0.0 0.0 0.00 0.00 0.00 83 1018.3
20260905020517 78 0.0 0.0 0.00 0.00 0.00 83 1018.6
20260905015517 78 0.0 1.0 0.00 0.00 0.00 82 1018.6
20260905014517 78 0.0 0.0 0.00 0.00 0.00 82 1018.7
20260905013517 79 0.0 0.0 0.00 0.00 0.00 81 1018.7
20260905012517 79 0.0 0.0 0.00 0.00 0.00 80 1018.4
20260905011517 79 0.0 1.0 0.00 0.00 0.00 79 1018.4
20260905010517 80 0.0 0.0 0.00 0.00 0.00 79 1018.6
20260905005516 80 0.0 0.0 0.00 0.00 0.00 78 1018.3
20260905004537 80 0.0 0.0 0.00 0.00 0.00 77 1018.1
20260905003516 80 0.0 0.0 0.00 0.00 0.00 77 1018.0
20260905002517 81 0.0 0.0 0.00 0.00 0.00 77 1017.8
20260905001517 82 0.0 0.0 0.00 0.00 0.00 74 1018.1
20260905000517 83 0.0 0.0 0.00 0.00 0.00 73 1017.9
20260904235516 84 0.0 0.0 0.00 0.00 0.00 71 1017.9
20260904234516 84 0.0 0.0 0.00 0.00 0.00 71 1017.9
20260904233517 84 0.0 0.0 0.00 0.00 0.00 69 1017.9
20260904232517 85 0.0 0.0 0.00 0.00 0.00 70 1017.8
20260904231517 85 0.0 0.0 0.00 0.00 0.00 69 1017.7
20260904230517 85 0.0 0.0 0.00 0.00 0.00 69 1017.7
20260904225516 86 0.0 0.0 0.00 0.00 0.00 67 1017.7
20260904224516 86 0.0 0.0 0.00 0.00 0.00 67 1017.6
20260904223537 87 0.0 0.0 0.00 0.00 0.00 66 1017.7
20260904222517 88 0.0 1.0 0.00 0.00 0.00 65 1017.9
20260904221516 89 0.0 1.0 0.00 0.00 0.00 62 1017.9
20260904220516 89 0.0 1.0 0.00 0.00 0.00 60 1017.9
20260904215557 89 0.0 1.0 0.00 0.00 0.00 60 1018.0
20260904214516 89 0.0 1.0 0.00 0.00 0.00 60 1018.2
20260904213517 90 0.0 1.0 0.00 0.00 0.00 59 1018.0
20260904212516 90 0.0 1.0 0.00 0.00 0.00 59 1018.1
20260904211516 90 0.0 1.0 0.00 0.00 0.00 59 1018.0
20260904210516 91 0.0 1.0 0.00 0.00 0.00 58 1018.1
20260904205516 92 0.0 1.0 0.00 0.00 0.00 59 1018.2
20260904204516 93 0.0 1.0 0.00 0.00 0.00 56 1018.3
20260904203536 93 0.0 1.0 0.00 0.00 0.00 55 1018.2
20260904202536 91 0.0 2.0 0.00 0.00 0.00 56 1018.3
20260904201516 90 135 1.0 3.0 0.00 0.00 0.00 61 1018.3
20260904200516 89 135 1.0 2.0 0.00 0.00 0.00 60 1018.4
20260904195556 90 135 1.0 2.0 0.00 0.00 0.00 59 1018.6
20260904194516 91 135 1.0 2.0 0.00 0.00 0.00 63 1019.0
20260904193516 90 0.0 0.0 0.00 0.00 0.00 63 1018.9
20260904192516 91 0.0 1.0 0.00 0.00 0.00 60 1019.5
20260904191516 93 158 1.0 2.0 0.00 0.00 0.00 55 1019.6
20260904190516 92 0.0 2.0 0.00 0.00 0.00 56 1019.6
20260904185517 92 23 2.0 5.0 0.00 0.00 0.00 55 1019.6
20260904184516 91 0.0 1.0 0.00 0.00 0.00 53 1019.5
20260904183516 92 0.0 2.0 0.00 0.00 0.00 54 1019.8
20260904182516 92 23 1.0 4.0 0.00 0.00 0.00 53 1019.9
20260904181516 93 23 1.0 4.0 0.00 0.00 0.00 51 1019.9
20260904180516 91 23 2.0 4.0 0.00 0.00 0.00 54 1019.9
20260904175516 91 23 1.0 3.0 0.00 0.00 0.00 55 1020.1
20260904174516 90 23 2.0 3.0 0.00 0.00 0.00 55 1020.2
20260904173516 90 23 1.0 4.0 0.00 0.00 0.00 56 1020.3
20260904172516 90 23 1.0 3.0 0.00 0.00 0.00 57 1020.6
20260904171516 90 23 1.0 2.0 0.00 0.00 0.00 57 1020.8
20260904170537 90 23 1.0 2.0 0.00 0.00 0.00 58 1020.9
20260904165516 89 23 2.0 3.0 0.00 0.00 0.00 59 1020.9
20260904164517 89 23 1.0 2.0 0.00 0.00 0.00 60 1021.0
20260904163536 88 23 2.0 6.0 0.00 0.00 0.00 61 1021.1
20260904162536 87 23 1.0 3.0 0.00 0.00 0.00 62 1021.2
20260904161536 87 23 2.0 5.0 0.00 0.00 0.00 63 1021.2
20260904160516 86 23 1.0 4.0 0.00 0.00 0.00 65 1021.3
20260904155516 85 23 1.0 5.0 0.00 0.00 0.00 67 1021.3
20260904154516 84 0.0 0.0 0.00 0.00 0.00 73 1021.3
20260904153516 83 0.0 0.0 0.00 0.00 0.00 73 1021.2
20260904152516 82 0.0 1.0 0.00 0.00 0.00 73 1021.2
20260904151516 81 0.0 0.0 0.00 0.00 0.00 75 1021.1
20260904150536 81 0.0 1.0 0.00 0.00 0.00 77 1021.2
20260904145516 80 0.0 1.0 0.00 0.00 0.00 78 1021.2
20260904144516 79 0.0 0.0 0.00 0.00 0.00 82 1021.2
20260904143516 78 0.0 1.0 0.00 0.00 0.00 83 1021.1
20260904142536 77 0.0 0.0 0.00 0.00 0.00 85 1021.2
20260904141556 76 0.0 0.0 0.00 0.00 0.00 86 1021.2
20260904140536 75 0.0 0.0 0.00 0.00 0.00 88 1021.1
20260904135516 74 0.0 1.0 0.00 0.00 0.00 89 1021.1
20260904134516 73 0.0 1.0 0.00 0.00 0.00 90 1021.1
20260904133516 72 0.0 0.0 0.00 0.00 0.00 89 1020.8
20260904132516 72 0.0 0.0 0.00 0.00 0.00 89 1021.0
20260904131515 71 0.0 0.0 0.00 0.00 0.00 88 1020.8
20260904130516 71 0.0 0.0 0.00 0.00 0.00 87 1020.8
20260904125556 70 0.0 0.0 0.00 0.00 0.00 86 1020.7
20260904124536 70 0.0 0.0 0.00 0.00 0.00 85 1020.8
20260904123516 69 0.0 0.0 0.00 0.00 0.00 83 1020.6
20260904122516 69 0.0 0.0 0.00 0.00 0.00 82 1020.7
20260904121516 69 0.0 0.0 0.00 0.00 0.00 81 1020.6
20260904120515 68 0.0 0.0 0.00 0.00 0.00 82 1020.5
20260904115538 68 0.0 0.0 0.00 0.00 0.00 83 1020.7
20260904114515 68 0.0 0.0 0.00 0.00 0.00 84 1020.8
20260904113516 68 0.0 0.0 0.00 0.00 0.00 85 1020.7
20260904112515 68 0.0 0.0 0.00 0.00 0.00 85 1020.8
20260904111556 68 0.0 0.0 0.00 0.00 0.00 85 1020.5
20260904110515 68 0.0 0.0 0.00 0.00 0.00 86 1020.2
20260904105515 68 0.0 0.0 0.00 0.00 0.00 87 1020.4
20260904104515 68 0.0 0.0 0.00 0.00 0.00 87 1020.4
20260904103516 68 0.0 0.0 0.00 0.00 0.00 87 1020.3
20260904102515 68 0.0 0.0 0.00 0.00 0.00 87 1020.2
20260904101515 69 0.0 0.0 0.00 0.00 0.00 87 1020.1
20260904100515 69 0.0 0.0 0.00 0.00 0.00 87 1020.3
20260904095515 69 0.0 0.0 0.00 0.00 0.00 85 1020.3
20260904094515 69 0.0 0.0 0.00 0.00 0.00 86 1020.4
20260904093515 69 0.0 0.0 0.00 0.00 0.00 86 1020.4
20260904092515 69 0.0 0.0 0.00 0.00 0.00 86 1020.5
20260904091515 69 0.0 0.0 0.00 0.00 0.00 86 1020.5
20260904090515 69 0.0 0.0 0.00 0.00 0.00 86 1020.6
20260904085555 69 0.0 0.0 0.00 0.00 0.00 87 1020.9
20260904084515 69 0.0 0.0 0.00 0.00 0.00 87 1020.7